Regional Weather Roundup
Issued by NWS Portland, ME

Current Version | Previous Version | Text Only | Print | Product List | Glossary Off
Versions: 1 2 3 4 5 6 7 8 9 10 11 12 13 14 15 16 17 18 19 20 21 22 23 24 25 26 27 28 29 30 31 32 33 34 35 36 37 38 39 40 41 42 43 44 45 46 47 48 49 50
000 ASUS41 KGYX 221910 RWRGYX WEATHER ROUNDUP FOR MAINE AND NEW HAMPSHIRE NATIONAL WEATHER SERVICE GRAY ME 300 PM EDT FRI JUN 22 2018 MEZ002-005-006-010-012-015-018-020-021-024-026-027-029-222000- MAINE CITY SKY/WX TMP DP RH WIND PRES REMARKS PORTLAND FAIR 69 47 45 S13G18 30.07S SANFORD FAIR 72 54 53 VRB7 30.06F BAR HARBOR FAIR 68 42 38 SW18 30.04F WISCASSET FAIR 70 39 32 S8 30.08F ROCKLAND FAIR 67 40 37 S9 30.08R FRYEBURG FAIR 78 47 33 VRB7 30.03F LEWISTONAUBURN FAIR 71 49 45 S9G17 30.05F AUGUSTA FAIR 74 44 34 S9 30.05S WATERVILLE FAIR 73 46 38 S8 30.01S BANGOR FAIR 75 41 29 W7G16 30.01F GREENVILLE N/A 72 40 31 VRB5 29.99F MILLINOCKET FAIR 76 42 29 W9 29.99F HOULTON FAIR 72 41 32 VRB6G16 29.97F PRESQUE ISLE FAIR 73 39 29 W12 29.97F FRENCHVILLE FAIR 74 42 31 W13G18 29.94F CARIBOU FAIR 74 40 29 SW10G20 29.94F $$ NHZ002-005-008-009-011-012-014-222000- NEW HAMPSHIRE CITY SKY/WX TMP DP RH WIND PRES REMARKS ROCHESTER FAIR 74 54 49 S12 30.05S NASHUA FAIR 79 51 37 SE6G14 30.03F MANCHESTER PTSUNNY 79 51 37 VRB6 30.02S CONCORD FAIR 78 51 38 SE8 30.03F LACONIA FAIR 74 48 39 NE5 30.04S PLYMOUTH FAIR 77 40 27 CALM 30.02F BERLIN FAIR 77 45 32 VRB6 30.02F WHITEFIELD FAIR 78 45 30 W9 30.01F JAFFREY FAIR 76 49 38 S10 30.05S KEENE FAIR 82 48 30 S6 30.02F LEBANON FAIR 79 45 29 SW7 30.01F MT WASHINGTON MOSUNNY 54 37 54 W8 N/A $$ VTZ005-007-008-222000- VERMONT CITY SKY/WX TMP DP RH WIND PRES REMARKS ST JOHNSBURY N/A 75 42 30 MISG 29.99F MONTPELIER FAIR 74 42 31 S8 30.06F BURLINGTON FAIR 78 37 22 VRB6 29.99F $$ MAZ007-012-024-CTZ003-RIZ002-NYZ038-NYZ072-222000- SOUTHERN NEW ENGLAND AND NY CITY SKY/WX TMP DP RH WIND PRES REMARKS BOSTON PTSUNNY 69 56 62 E15 30.06 WORCESTER FAIR 74 52 46 MISG 30.05F NANTUCKET FAIR 67 49 52 SE15 30.06S PROVIDENCE PTSUNNY 74 55 51 S12 30.05R HARTFORD PTSUNNY 79 54 41 SE6 30.01F ALBANY PTSUNNY 81 54 39 SW7 29.99F NEW YORK CITY PTSUNNY 74 59 59 SE12G17 30.01S $$ ANZ081-ANZ082-ANZ150-NHZ014-MEZ023>029-222000- COASTAL MARINE OBSERVATIONS STATION/POSITION TIME TEMP WIND PRES WAVE AIR SEA DIR/SP/G HT/PER (UTC) (F) (DEG/KT/KT) (MB) (FT/S) MOUNT DESERT ROC 1900 58 170/ 9/ 9 1018.7F MATINICUS ROCK 1900 59 200/ 5/ 6 1018.4R ISLE OF SHOALS 1800 60 110/ 6/ 6 1018.0F JEFFREYS LEDGE 1836 63 N/A 2/15 $$ .............KEY.............. WCI - WIND CHILL TC - TEMPERATURE IN CELSIUS VSB - VISIBILITY IN MILES HX - HEAT INDEX FAIR- INDICATES FEW OR NO CLOUDS BELOW 12,000 FT, WITH NO SIGNIFICANT WEATHER AND/OR OBSTRUCTIONS TO VISIBILITY.

USA.gov is the U.S. government's official web portal to all federal, state and local government web resources and services.